Find Starlink 36685

NORAD ID: 68718 Int'l Des: 2026-081 Owner: SPXS Country: US Constellation: starlink operational
LEOCIRCULAR

Live Position

Loading 3D Globe...

About Starlink 36685

Description loading...

Upcoming Passes

Passes for default location (London). Set your location on the main map for personalized predictions.

Altitude History

Loading altitude history...

Two-Line Element Set

1 68718C 26081U 26105.39354167 .00626730 00000+0 80523-3 0 1052
2 68718 53.1628 237.9464 0007107 303.8298 71.8085 16.06130181 17
Epoch: Apr 15, 2026 • Age: 16 hours

Current Status

Altitude 261.4 km
Velocity 7.75 km/s
Sub-Earth Point -34.23°S, 24.52°W
Launch Date Apr 14, 2026
Age 1 days
Type internet

Technical Details

Classification Payload
Mass 575.00 kg
Dry Mass 530.00 kg
Total Mass 575.00 kg
Length 0.30 m
Diameter 4.10 m
Span 29.00 m
Shape Box + pan
Manufacturer SPXS
Bus Type Starlink V2MO
Phase Status In Orbit
Owner/State SPXS/US

Most Searched